Location: Kellogg
(38.0159°N, 90.0546°W)
Time: 15:25:10
(UTC+00:00)

Vanguard 1 Rocket - Pass Details

Date: 18 September 2024
Orbit: 650 x 4218 km, 34.3° (Epoch: 07 October)

Event Time Altitude Azimuth Distance (km) Brightness Sun altitude
Rises 11:22:11 0° 267° (W) 5,879 - -5.3°
Exits shadow 11:23:52 - 267° (W) 5,523 10.7 -5.0°
Reaches altitude 10° 11:25:19 10° 266° (W) 5,236 10.6 -4.7°
Maximum altitude 11:42:56 80° 184° (S) 3,767 10.6 -1.3°
Drops below altitude 10° 12:09:29 10° 102° (ESE) 7,346 14.2 4.0°
Sets 12:14:56 0° 102° (ESE) 8,215 14.5 5.0°
